Year,Month,Day,Hour,Minute,Value (Times are PST for temperature in C)
2020,08,07,08,16,15.20
2020,08,07,08,17,15.20
2020,08,07,08,18,15.20
2020,08,07,08,19,15.30
2020,08,07,08,20,15.30
2020,08,07,08,21,15.30
2020,08,07,08,22,15.30
2020,08,07,08,23,15.40
2020,08,07,08,24,15.40
2020,08,07,08,25,15.40
2020,08,07,08,26,15.40
2020,08,07,08,27,15.50
2020,08,07,08,28,15.50
2020,08,07,08,29,15.50
2020,08,07,08,30,15.60
2020,08,07,08,31,15.60
2020,08,07,08,32,15.60
2020,08,07,08,33,15.70
2020,08,07,08,34,15.70
2020,08,07,08,35,15.70
2020,08,07,08,36,15.70
2020,08,07,08,37,15.70
2020,08,07,08,38,15.70
2020,08,07,08,39,15.70
2020,08,07,08,40,15.80
2020,08,07,08,41,15.80
2020,08,07,08,42,15.80
2020,08,07,08,43,15.80
2020,08,07,08,44,15.80
2020,08,07,08,45,15.80
2020,08,07,08,46,15.80
2020,08,07,08,47,15.80
2020,08,07,08,48,15.80
2020,08,07,08,49,15.80
2020,08,07,08,50,15.80
2020,08,07,08,51,15.80
2020,08,07,08,52,15.80
2020,08,07,08,53,15.80
2020,08,07,08,54,15.80
2020,08,07,08,55,15.80
2020,08,07,08,56,15.80
2020,08,07,08,57,15.80
2020,08,07,08,58,15.80
2020,08,07,08,59,15.80
2020,08,07,09,00,15.80
2020,08,07,09,01,15.80
2020,08,07,09,02,15.80
2020,08,07,09,03,15.80
2020,08,07,09,04,15.80
2020,08,07,09,05,15.80
2020,08,07,09,06,15.80
2020,08,07,09,07,15.80
2020,08,07,09,08,15.80
2020,08,07,09,09,15.90
2020,08,07,09,10,15.90
2020,08,07,09,11,15.90
2020,08,07,09,12,15.90
2020,08,07,09,13,15.90
2020,08,07,09,14,15.90
2020,08,07,09,15,15.90
2020,08,07,09,16,15.80
2020,08,07,09,17,15.80
2020,08,07,09,18,15.80
2020,08,07,09,19,15.80
2020,08,07,09,20,15.80
2020,08,07,09,21,15.80
2020,08,07,09,22,15.80
2020,08,07,09,23,15.80
2020,08,07,09,24,15.80
2020,08,07,09,25,15.80
2020,08,07,09,26,15.80
2020,08,07,09,27,15.80
2020,08,07,09,28,15.80
2020,08,07,09,29,15.80
2020,08,07,09,30,15.80
2020,08,07,09,31,15.80
2020,08,07,09,32,15.80
2020,08,07,09,33,15.80
2020,08,07,09,34,15.80
2020,08,07,09,35,15.80
2020,08,07,09,36,15.80
2020,08,07,09,37,15.80
2020,08,07,09,38,15.80
2020,08,07,09,39,15.80
2020,08,07,09,40,15.80
2020,08,07,09,41,15.90
2020,08,07,09,42,15.90
2020,08,07,09,43,15.90
2020,08,07,09,44,15.90
2020,08,07,09,45,15.90
2020,08,07,09,46,15.90
2020,08,07,09,47,15.90
2020,08,07,09,48,15.90
2020,08,07,09,49,15.90
2020,08,07,09,50,15.90
2020,08,07,09,51,15.90
2020,08,07,09,52,15.90
2020,08,07,09,53,16.00
2020,08,07,09,54,16.00
2020,08,07,09,55,16.00
2020,08,07,09,56,16.10
2020,08,07,09,57,16.10
2020,08,07,09,58,16.10
2020,08,07,09,59,16.10
2020,08,07,10,00,16.10
2020,08,07,10,01,16.10
2020,08,07,10,02,16.10
2020,08,07,10,03,16.10
2020,08,07,10,04,16.10
2020,08,07,10,05,16.10
2020,08,07,10,06,16.00
2020,08,07,10,07,16.00
2020,08,07,10,08,16.00
2020,08,07,10,09,16.00
2020,08,07,10,10,16.10
2020,08,07,10,11,16.10
2020,08,07,10,12,16.10
2020,08,07,10,13,16.10
2020,08,07,10,14,16.10
2020,08,07,10,15,16.10
2020,08,07,10,16,16.10
2020,08,07,10,17,16.10
2020,08,07,10,18,16.10
2020,08,07,10,19,16.00
2020,08,07,10,20,16.00
2020,08,07,10,21,16.00
2020,08,07,10,22,16.00
2020,08,07,10,23,16.00
2020,08,07,10,24,16.00
2020,08,07,10,25,16.00
2020,08,07,10,26,16.00
2020,08,07,10,27,15.90
2020,08,07,10,28,15.90
2020,08,07,10,29,15.90
2020,08,07,10,30,15.90
2020,08,07,10,31,15.80
2020,08,07,10,32,15.80
2020,08,07,10,33,15.80
2020,08,07,10,34,15.80
2020,08,07,10,35,15.80
2020,08,07,10,36,15.80
2020,08,07,10,37,15.80
2020,08,07,10,38,15.80
2020,08,07,10,39,15.80
2020,08,07,10,40,15.80
2020,08,07,10,41,15.80
2020,08,07,10,42,15.80
2020,08,07,10,43,15.80
2020,08,07,10,44,15.80
2020,08,07,10,45,15.90
2020,08,07,10,46,15.90
2020,08,07,10,47,15.90
2020,08,07,10,48,15.90
2020,08,07,10,49,15.90
2020,08,07,10,50,15.90
2020,08,07,10,51,15.90
2020,08,07,10,52,15.90
2020,08,07,10,53,15.90
2020,08,07,10,54,15.90
2020,08,07,10,55,15.90
2020,08,07,10,56,15.90
2020,08,07,10,57,15.90
2020,08,07,10,58,15.90
2020,08,07,10,59,15.90
2020,08,07,11,00,15.80
2020,08,07,11,01,15.80
2020,08,07,11,02,15.80
2020,08,07,11,03,15.80
2020,08,07,11,04,15.80
2020,08,07,11,05,15.80
2020,08,07,11,06,15.80
2020,08,07,11,07,15.80
2020,08,07,11,08,15.80
2020,08,07,11,09,15.80
2020,08,07,11,10,15.80
2020,08,07,11,11,15.80
2020,08,07,11,12,15.80
2020,08,07,11,13,15.80
2020,08,07,11,14,15.90
2020,08,07,11,15,15.90
2020,08,07,11,16,15.90
2020,08,07,11,17,15.90
2020,08,07,11,18,15.90
2020,08,07,11,19,15.90
2020,08,07,11,20,15.80
2020,08,07,11,21,15.80
2020,08,07,11,22,15.90
2020,08,07,11,23,15.90
2020,08,07,11,24,16.00
2020,08,07,11,25,16.00
2020,08,07,11,26,16.00
2020,08,07,11,27,16.00
2020,08,07,11,28,16.00
2020,08,07,11,29,16.00
2020,08,07,11,30,16.00
2020,08,07,11,31,16.00
2020,08,07,11,32,15.90
2020,08,07,11,33,15.90
2020,08,07,11,34,15.90
2020,08,07,11,35,15.80
2020,08,07,11,36,15.80
2020,08,07,11,37,15.70
2020,08,07,11,38,15.70
2020,08,07,11,39,15.70
2020,08,07,11,40,15.60
2020,08,07,11,41,15.50
2020,08,07,11,42,15.50
2020,08,07,11,43,15.50
2020,08,07,11,44,15.50
2020,08,07,11,45,15.50
2020,08,07,11,46,15.40
2020,08,07,11,47,15.40
2020,08,07,11,48,15.40
2020,08,07,11,49,15.50
2020,08,07,11,50,15.50
2020,08,07,11,51,15.40
2020,08,07,11,52,15.40
2020,08,07,11,53,15.40
2020,08,07,11,54,15.40
2020,08,07,11,55,15.40
2020,08,07,11,56,15.50
2020,08,07,11,57,15.50
2020,08,07,11,58,15.40
2020,08,07,11,59,15.40
2020,08,07,12,00,15.40
2020,08,07,12,01,15.40
2020,08,07,12,02,15.40
2020,08,07,12,03,15.30
2020,08,07,12,04,15.30
2020,08,07,12,05,15.30
2020,08,07,12,06,15.20
2020,08,07,12,07,15.20
2020,08,07,12,08,15.20
2020,08,07,12,09,15.20
2020,08,07,12,10,15.20
2020,08,07,12,11,15.20
2020,08,07,12,12,15.20
2020,08,07,12,13,15.20
2020,08,07,12,14,15.20
2020,08,07,12,15,15.20
2020,08,07,12,16,15.20
2020,08,07,12,17,15.20
2020,08,07,12,18,15.10
2020,08,07,12,19,15.10
2020,08,07,12,20,15.10
2020,08,07,12,21,15.10
2020,08,07,12,22,15.00
2020,08,07,12,23,15.10
2020,08,07,12,24,15.10
2020,08,07,12,25,15.10
2020,08,07,12,26,15.10
2020,08,07,12,27,15.10
2020,08,07,12,28,15.10
2020,08,07,12,29,15.10
2020,08,07,12,30,15.10
2020,08,07,12,31,15.00
2020,08,07,12,32,15.00
2020,08,07,12,33,15.00
2020,08,07,12,34,15.10
2020,08,07,12,35,15.10
2020,08,07,12,36,15.10
2020,08,07,12,37,15.10
2020,08,07,12,38,15.10
2020,08,07,12,39,15.10
2020,08,07,12,40,15.00
2020,08,07,12,41,15.00
2020,08,07,12,42,15.00
2020,08,07,12,43,14.90
2020,08,07,12,44,14.90
2020,08,07,12,45,14.90
2020,08,07,12,46,14.90
2020,08,07,12,47,14.90
2020,08,07,12,48,15.00
2020,08,07,12,49,15.00
2020,08,07,12,50,15.10
2020,08,07,12,51,15.10
2020,08,07,12,52,15.10
2020,08,07,12,53,15.10
2020,08,07,12,54,15.10
2020,08,07,12,55,15.10
2020,08,07,12,56,15.00
2020,08,07,12,57,15.00
2020,08,07,12,58,15.00
2020,08,07,12,59,14.90
2020,08,07,13,00,14.90
2020,08,07,13,01,14.90
2020,08,07,13,02,14.90
2020,08,07,13,03,14.90
2020,08,07,13,04,14.90
2020,08,07,13,05,14.90
2020,08,07,13,06,14.90
2020,08,07,13,07,14.90
2020,08,07,13,08,14.90
2020,08,07,13,09,14.80
2020,08,07,13,10,14.80
2020,08,07,13,11,14.80
2020,08,07,13,12,14.90
2020,08,07,13,13,14.90
2020,08,07,13,14,14.90
2020,08,07,13,15,14.90
2020,08,07,13,16,14.90
2020,08,07,13,17,14.90
2020,08,07,13,18,14.90
2020,08,07,13,19,14.90
2020,08,07,13,20,14.90
2020,08,07,13,21,14.90
2020,08,07,13,22,14.90
2020,08,07,13,23,14.90
2020,08,07,13,24,14.90
2020,08,07,13,25,14.90
2020,08,07,13,26,14.90
2020,08,07,13,27,14.90
2020,08,07,13,28,14.90
2020,08,07,13,29,14.90
2020,08,07,13,30,14.90
2020,08,07,13,31,14.90
2020,08,07,13,32,14.90
2020,08,07,13,33,14.90
2020,08,07,13,34,14.90
2020,08,07,13,35,14.90
2020,08,07,13,36,14.90
2020,08,07,13,37,14.90
2020,08,07,13,38,14.90
2020,08,07,13,39,14.90
2020,08,07,13,40,14.90
2020,08,07,13,41,14.90
2020,08,07,13,42,14.90
2020,08,07,13,43,14.90
2020,08,07,13,44,14.90
2020,08,07,13,45,15.00
2020,08,07,13,46,15.00
2020,08,07,13,47,15.10
2020,08,07,13,48,15.10
2020,08,07,13,49,15.00
2020,08,07,13,50,15.00
2020,08,07,13,51,15.00
2020,08,07,13,52,15.00
2020,08,07,13,53,14.90
2020,08,07,13,54,14.90
2020,08,07,13,55,14.90
2020,08,07,13,56,14.90
2020,08,07,13,57,14.90
2020,08,07,13,58,14.90
2020,08,07,13,59,14.90
2020,08,07,14,00,14.90
2020,08,07,14,01,14.90
2020,08,07,14,02,14.90
2020,08,07,14,03,14.90
2020,08,07,14,04,14.90
2020,08,07,14,05,14.90
2020,08,07,14,06,14.90
2020,08,07,14,07,14.90
2020,08,07,14,08,14.90
2020,08,07,14,09,14.90
2020,08,07,14,10,14.90
2020,08,07,14,11,14.90
2020,08,07,14,12,15.00
2020,08,07,14,13,15.00
2020,08,07,14,14,15.10
2020,08,07,14,15,15.10
2020,08,07,14,16,15.10
2020,08,07,14,17,15.10
2020,08,07,14,18,15.10
2020,08,07,14,19,15.10
2020,08,07,14,20,15.10
2020,08,07,14,21,15.10
2020,08,07,14,22,15.00
2020,08,07,14,23,15.00
2020,08,07,14,24,15.00
2020,08,07,14,25,15.00
2020,08,07,14,26,15.00
2020,08,07,14,27,14.90
2020,08,07,14,28,14.90
2020,08,07,14,29,14.90
2020,08,07,14,30,14.90
2020,08,07,14,31,14.90
2020,08,07,14,32,15.00
2020,08,07,14,33,15.00
2020,08,07,14,34,15.10
2020,08,07,14,35,15.10
2020,08,07,14,36,15.10
2020,08,07,14,37,15.10
2020,08,07,14,38,15.10
2020,08,07,14,39,15.10
2020,08,07,14,40,15.10
2020,08,07,14,41,15.10
2020,08,07,14,42,15.20
2020,08,07,14,43,15.20
2020,08,07,14,44,15.20
2020,08,07,14,45,15.20
2020,08,07,14,46,15.30
2020,08,07,14,47,15.20
2020,08,07,14,48,15.20
2020,08,07,14,49,15.20
2020,08,07,14,50,15.20
2020,08,07,14,51,15.20
2020,08,07,14,52,15.20
2020,08,07,14,53,15.20
2020,08,07,14,54,15.20
2020,08,07,14,55,15.20
2020,08,07,14,56,15.20
2020,08,07,14,57,15.20
2020,08,07,14,58,15.20
2020,08,07,14,59,15.10
2020,08,07,15,00,15.10
2020,08,07,15,01,15.10
2020,08,07,15,02,15.00
2020,08,07,15,03,14.90
2020,08,07,15,04,14.90
2020,08,07,15,05,14.90
2020,08,07,15,06,14.90
2020,08,07,15,07,14.80
2020,08,07,15,08,14.80
2020,08,07,15,09,14.80
2020,08,07,15,10,14.80
2020,08,07,15,11,14.80
2020,08,07,15,12,14.80
2020,08,07,15,13,14.70
2020,08,07,15,14,14.70
2020,08,07,15,15,14.70
2020,08,07,15,16,14.70
2020,08,07,15,17,14.70
2020,08,07,15,18,14.70
2020,08,07,15,19,14.70
2020,08,07,15,20,14.70
2020,08,07,15,21,14.70
2020,08,07,15,22,14.70
2020,08,07,15,23,14.70
2020,08,07,15,24,14.70
2020,08,07,15,25,14.70
2020,08,07,15,26,14.60
2020,08,07,15,27,14.60
2020,08,07,15,28,14.60
2020,08,07,15,29,14.60
2020,08,07,15,30,14.60
2020,08,07,15,31,14.70
2020,08,07,15,32,14.70
2020,08,07,15,33,14.70
2020,08,07,15,34,14.70
2020,08,07,15,35,14.70
2020,08,07,15,36,14.80
2020,08,07,15,37,14.80
2020,08,07,15,38,14.70
2020,08,07,15,39,14.70
2020,08,07,15,40,14.60
2020,08,07,15,41,14.60
2020,08,07,15,42,14.60
2020,08,07,15,43,14.60
2020,08,07,15,44,14.50
2020,08,07,15,45,14.50
2020,08,07,15,46,14.60
2020,08,07,15,47,14.60
2020,08,07,15,48,14.50
2020,08,07,15,49,14.50
2020,08,07,15,50,14.60
2020,08,07,15,51,14.60
2020,08,07,15,52,14.60
2020,08,07,15,53,14.60
2020,08,07,15,54,14.60
2020,08,07,15,55,14.60
2020,08,07,15,56,14.60
2020,08,07,15,57,14.60
2020,08,07,15,58,14.60
2020,08,07,15,59,14.60
2020,08,07,16,00,14.60
2020,08,07,16,01,14.60
2020,08,07,16,02,14.60
2020,08,07,16,03,14.60
2020,08,07,16,04,14.70
2020,08,07,16,05,14.70
2020,08,07,16,06,14.70
2020,08,07,16,07,14.70
2020,08,07,16,08,14.70
2020,08,07,16,09,14.70
2020,08,07,16,10,14.70
2020,08,07,16,11,14.60
2020,08,07,16,12,14.60
2020,08,07,16,13,14.60
2020,08,07,16,14,14.60
2020,08,07,16,15,14.60
2020,08,07,16,16,14.60
2020,08,07,16,17,14.60
2020,08,07,16,18,14.60
2020,08,07,16,19,14.60
2020,08,07,16,20,14.60
2020,08,07,16,21,14.60
2020,08,07,16,22,14.70
2020,08,07,16,23,14.70
2020,08,07,16,24,14.70
2020,08,07,16,25,14.70
2020,08,07,16,26,14.70
2020,08,07,16,27,14.70
2020,08,07,16,28,14.70
2020,08,07,16,29,14.70
2020,08,07,16,30,14.70
2020,08,07,16,31,14.60
2020,08,07,16,32,14.60
2020,08,07,16,33,14.60
2020,08,07,16,34,14.60
2020,08,07,16,35,14.60
2020,08,07,16,36,14.50
2020,08,07,16,37,14.50
2020,08,07,16,38,14.50
2020,08,07,16,39,14.50
2020,08,07,16,40,14.60
2020,08,07,16,41,14.60
2020,08,07,16,42,14.60
2020,08,07,16,43,14.60
2020,08,07,16,44,14.60
2020,08,07,16,45,14.70
2020,08,07,16,46,14.70
2020,08,07,16,47,14.80
2020,08,07,16,48,14.80
2020,08,07,16,49,14.90
2020,08,07,16,50,14.90
2020,08,07,16,51,15.00
2020,08,07,16,52,15.00
2020,08,07,16,53,15.00
2020,08,07,16,54,14.90
2020,08,07,16,55,14.90
2020,08,07,16,56,14.90
2020,08,07,16,57,14.90
2020,08,07,16,58,15.00
2020,08,07,16,59,15.10
2020,08,07,17,00,15.10
2020,08,07,17,01,15.00
2020,08,07,17,02,14.90
2020,08,07,17,03,14.90
2020,08,07,17,04,14.90
2020,08,07,17,05,14.90
2020,08,07,17,06,14.90
2020,08,07,17,07,14.90
2020,08,07,17,08,14.90
2020,08,07,17,09,14.90
2020,08,07,17,10,14.90
2020,08,07,17,11,14.90
2020,08,07,17,12,14.90
2020,08,07,17,13,14.90
2020,08,07,17,14,14.80
2020,08,07,17,15,14.80
2020,08,07,17,16,14.90
2020,08,07,17,17,14.90
2020,08,07,17,18,14.90
2020,08,07,17,19,14.80
2020,08,07,17,20,14.80
2020,08,07,17,21,14.80
2020,08,07,17,22,14.80
2020,08,07,17,23,14.80
2020,08,07,17,24,14.80
2020,08,07,17,25,14.90
2020,08,07,17,26,14.90
2020,08,07,17,27,14.80
2020,08,07,17,28,14.80
2020,08,07,17,29,14.80
2020,08,07,17,30,14.80
2020,08,07,17,31,14.80
2020,08,07,17,32,14.80
2020,08,07,17,33,14.80
2020,08,07,17,34,14.80
2020,08,07,17,35,14.80
2020,08,07,17,36,14.70
2020,08,07,17,37,14.70
2020,08,07,17,38,14.80
2020,08,07,17,39,14.80
2020,08,07,17,40,14.80
2020,08,07,17,41,14.70
2020,08,07,17,42,14.70
2020,08,07,17,43,14.60
2020,08,07,17,44,14.60
2020,08,07,17,45,14.60
2020,08,07,17,46,14.60
2020,08,07,17,47,14.60
2020,08,07,17,48,14.60
2020,08,07,17,49,14.60
2020,08,07,17,50,14.60
2020,08,07,17,51,14.60
2020,08,07,17,52,14.60
2020,08,07,17,53,14.60
2020,08,07,17,54,14.50
2020,08,07,17,55,14.50
2020,08,07,17,56,14.50
2020,08,07,17,57,14.50
2020,08,07,17,58,14.50
2020,08,07,17,59,14.50
2020,08,07,18,00,14.50
2020,08,07,18,01,14.50
2020,08,07,18,02,14.50
2020,08,07,18,03,14.50
2020,08,07,18,04,14.50
2020,08,07,18,05,14.50
2020,08,07,18,06,14.50
2020,08,07,18,07,14.50
2020,08,07,18,08,14.50
2020,08,07,18,09,14.50
2020,08,07,18,10,14.50
2020,08,07,18,11,14.50
2020,08,07,18,12,14.50
2020,08,07,18,13,14.50
2020,08,07,18,14,14.50
2020,08,07,18,15,14.50
2020,08,07,18,16,14.50
2020,08,07,18,17,14.60
2020,08,07,18,18,14.60
2020,08,07,18,19,14.60
2020,08,07,18,20,14.60
2020,08,07,18,21,14.60
2020,08,07,18,22,14.60
2020,08,07,18,23,14.60
2020,08,07,18,24,14.70
2020,08,07,18,25,14.70
2020,08,07,18,26,14.70
2020,08,07,18,27,14.70
2020,08,07,18,28,14.70
2020,08,07,18,29,14.80
2020,08,07,18,30,14.80
2020,08,07,18,31,14.80
2020,08,07,18,32,14.80
2020,08,07,18,33,14.90
2020,08,07,18,34,14.90
2020,08,07,18,35,14.90
2020,08,07,18,36,14.90
2020,08,07,18,37,14.90
2020,08,07,18,38,14.90
2020,08,07,18,39,14.90
2020,08,07,18,40,14.80
2020,08,07,18,41,14.90
2020,08,07,18,42,14.90
2020,08,07,18,43,14.90
2020,08,07,18,44,14.80
2020,08,07,18,45,14.80
2020,08,07,18,46,14.80
2020,08,07,18,47,14.80
2020,08,07,18,48,14.80
2020,08,07,18,49,14.80
2020,08,07,18,50,14.80
2020,08,07,18,51,14.80
2020,08,07,18,52,14.80
2020,08,07,18,53,14.80
2020,08,07,18,54,14.80
2020,08,07,18,55,14.80
2020,08,07,18,56,14.80
2020,08,07,18,57,14.80
2020,08,07,18,58,14.90
2020,08,07,18,59,14.90
2020,08,07,19,00,14.80
2020,08,07,19,01,14.80
2020,08,07,19,02,14.80
2020,08,07,19,03,14.80
2020,08,07,19,04,14.80
2020,08,07,19,05,14.80
2020,08,07,19,06,14.80
2020,08,07,19,07,14.80
2020,08,07,19,08,14.90
2020,08,07,19,09,14.90
2020,08,07,19,10,14.80
2020,08,07,19,11,14.80
2020,08,07,19,12,14.80
2020,08,07,19,13,14.90
2020,08,07,19,14,14.90
2020,08,07,19,15,14.90
2020,08,07,19,16,14.90
2020,08,07,19,17,14.90
2020,08,07,19,18,14.90
2020,08,07,19,19,14.90
2020,08,07,19,20,14.90
2020,08,07,19,21,14.90
2020,08,07,19,22,14.90
2020,08,07,19,23,14.90
2020,08,07,19,24,14.90
2020,08,07,19,25,15.00
2020,08,07,19,26,15.00
2020,08,07,19,27,15.00
2020,08,07,19,28,15.00
2020,08,07,19,29,15.10
2020,08,07,19,30,15.00
2020,08,07,19,31,15.00
2020,08,07,19,32,15.10
2020,08,07,19,33,15.00
2020,08,07,19,34,15.00
2020,08,07,19,35,15.00
2020,08,07,19,36,15.10
2020,08,07,19,37,15.10
2020,08,07,19,38,15.10
2020,08,07,19,39,15.10
2020,08,07,19,40,15.10
2020,08,07,19,41,15.10
2020,08,07,19,42,15.10
2020,08,07,19,43,15.10
2020,08,07,19,44,15.10
2020,08,07,19,45,15.20
2020,08,07,19,46,15.20
2020,08,07,19,47,15.20
2020,08,07,19,48,15.20
2020,08,07,19,49,15.20
2020,08,07,19,50,15.20
2020,08,07,19,51,15.20
2020,08,07,19,52,15.20
2020,08,07,19,53,15.20
2020,08,07,19,54,15.20
2020,08,07,19,55,15.10
2020,08,07,19,56,15.20
2020,08,07,19,57,15.20
2020,08,07,19,58,15.20
2020,08,07,19,59,15.20
2020,08,07,20,00,15.20
2020,08,07,20,01,15.20
2020,08,07,20,02,15.20
2020,08,07,20,03,15.20
2020,08,07,20,04,15.20
2020,08,07,20,05,15.20
2020,08,07,20,06,15.10
2020,08,07,20,07,15.10
2020,08,07,20,08,15.10
2020,08,07,20,09,15.10
2020,08,07,20,10,15.10
2020,08,07,20,11,15.10
2020,08,07,20,12,15.10
2020,08,07,20,13,15.10
2020,08,07,20,14,15.10
2020,08,07,20,15,15.10
2020,08,07,20,16,15.10
